THORAD AGENA D DEB, 4643

Orbit data source: Space-Track

THORAD AGENA D DEB, 4643 is space debris in SSO originally from a launch on Wed, 08 Apr 1970 UTC launched from the Air Force Western Test Range (AFWTR). Debris objects in space refer to the collection of defunct objects orbiting the Earth. Examples of debris include non-operational satellites, rocket bodies, and fragments generated from explosions, collisions, or faulty payload assembly.

Loading next visibility...
Identifier
4643, 1970-025AB
Orbit
SSO
Last TLE update
7 hours ago
Origin
Manufacturer
Unknown
Mission
Spacecraft
Bus & Motor
Unknown
Mass
Unknown
Launch date (UTC)
1970-04-08 (55 years ago)
Launch vehicle
Unknown
Launch site
Air Force Western Test Range (AFWTR)
Object type
Payload
Rocket body
Debris
Shape & HBR
Unknown
Radar Cross Section
Small (<0.1 m²)

Expand to show TLE details & history

TLE from 7 hours ago
0 THORAD AGENA D DEB
1  4643U 70025AB  25199.16154052  .00000089  00000-0  18932-3 0  9994
2  4643  99.4289  58.3084 0010874 350.3449 131.4733 13.55101803727023
Epoch: 2025-07-18T03:52Z
TLE epoch observation values (Epoch: 2025-07-18T03:52:37.1Z)
Latitude
56.96309°
Longitude
-101.34597°
Altitude
1,068.369 km
Speed
7.321 km/s
True Right ascension
16h 52m 06s
True Declination
56° 48' 44"
Sunlit
Object was in daylight at epoch
Visualization orbit readout
Latitude
74.45762°
Longitude
27.7664°
Altitude
1,065.932 km
Speed
7.326 km/s
Apparent Right ascension
10h 20m 54s
Apparent Declination
42° 55' 55"
Sunlit
Object is in daylight
Visualization observer readout
Local Sidereal Time
23:30:17
Azimuth
12.672° NNE
Elevation
-5.679°
Doppler factor
1
Orbital elements
Apogee altitude
1,058.906 km
Perigee altitude
1,042.749 km
Semi-major axis
7,428.965 km
Eccentricity
0.00109
Inclination
99.4289°
RAAN
58.3084°
Arg. of periapsis
350.3449°
True anomaly
131.56658°
Mean anomaly
131.4733°
Eccentric anomaly
131.51995°
Mean motion
3.38962 °/min
Orbital period
106.21 mins
BSTAR
0.00018932
Loading maneuver chart data...
Loading SW <> Apogee altitude chart data...
|